QPF
0.00 0.00 0.05 0.01 0.03 0.02 0.00 0.00 0.00 0.00 0.00 0.00 0.00 0.00 0.00 0.00 0.00 0.00 0.00 0.00 0.00 0.00 0.00 0.00 0.00 0.00 0.00 0.00 0.01 0.01 0.00 0.00 0.00 0.00 0.00 0.00 0.00 0.00 0.00 0.00 0.01 0.02 0.00 0.00 0.00 0.01 0.00 0.00 0.01
0.00 0.04 0.17 0.05 0.04 0.03 0.00 0.00 0.00 0.00 0.00 0.00 0.00 0.00 0.00 0.00 0.00 0.00 0.00 0.00 0.00 0.00 0.00 0.00 0.00 0.00 0.00 0.00 0.01 0.01 0.00 0.00 0.00 0.00 0.00 0.00 0.00 0.00 0.00 0.00 0.00 0.00 0.01 0.00 0.00 0.00 0.00 0.01 0.02
0.02 0.11 0.20 0.10 0.12 0.02 0.00 0.00 0.00 0.00 0.00 0.00 0.00 0.00 0.00 0.00 0.00 0.00 0.00 0.00 0.00 0.00 0.00 0.00 0.00 0.00 0.00 0.00 0.00 0.00 0.00 0.00 0.00 0.00 0.00 0.00 0.00 0.00 0.00 0.00 0.00 0.01 0.01 0.01 0.01 0.00 0.00 0.01 0.00
0.02 0.14 0.08 0.04 0.06 0.00 0.00 0.00 0.00 0.00 0.00 0.00 0.00 0.00 0.00 0.00 0.00 0.00 0.00 0.00 0.00 0.00 0.00 0.00 0.00 0.00 0.00 0.00 0.00 0.00 0.00 0.00 0.00 0.00 0.01 0.00 0.00 0.00 0.00 0.00 0.00 0.01 0.01 0.00 0.00 0.00 0.00 0.00 0.00
0.01 0.02 0.01 0.01 0.01 0.00 0.00 0.00 0.01 0.00 0.00 0.00 0.00 0.00 0.00 0.00 0.00 0.00 0.00 0.00 0.00 0.00 0.00 0.00 0.00 0.00 0.00 0.00 0.00 0.00 0.00 0.00 0.01 0.00 0.01 0.00 0.00 0.00 0.00 0.00 0.00 0.00 0.01 0.00 0.00 0.00 0.00 0.00 0.00
0.01 0.00 0.00 0.00 0.00 0.00 0.00 0.01 0.00 0.00 0.00 0.00 0.00 0.00 0.00 0.00 0.00 0.00 0.00 0.00 0.00 0.00 0.00 0.00 0.00 0.00 0.00 0.00 0.00 0.00 0.00 0.00 0.00 0.00 0.00 0.01 0.01 0.02 0.00 0.00 0.00 0.00 0.00 0.00 0.00 0.00 0.00 0.00 0.00
0.04 0.03 0.00 0.00 0.00 0.00 0.00 0.01 0.02 0.00 0.00 0.00 0.00 0.00 0.00 0.00 0.00 0.00 0.00 0.00 0.00 0.00 0.00 0.00 0.00 0.00 0.00 0.00 0.00 0.00 0.00 0.00 0.00 0.00 0.00 0.01 0.02 0.01 0.00 0.01 0.00 0.00 0.00 0.00 0.00 0.00 0.00 0.00 0.00
0.09 0.09 0.03 0.00 0.00 0.00 0.01 0.01 0.02 0.01 0.00 0.00 0.00 0.00 0.00 0.00 0.00 0.00 0.00 0.00 0.00 0.00 0.00 0.00 0.00 0.00 0.00 0.00 0.00 0.00 0.00 0.00 0.00 0.01 0.00 0.00 0.00 0.00 0.01 0.03 0.01 0.00 0.00 0.00 0.00 0.00 0.00 0.00 0.00
0.12 0.22 0.10 0.04 0.01 0.00 0.01 0.01 0.01 0.03 0.04 0.01 0.00 0.00 0.00 0.00 0.00 0.00 0.00 0.00 0.00 0.00 0.00 0.00 0.00 0.00 0.00 0.00 0.00 0.00 0.00 0.00 0.00 0.00 0.00 0.00 0.00 0.00 0.00 0.00 0.00 0.00 0.00 0.00 0.00 0.00 0.00 0.00 0.00
0.01 0.13 0.11 0.04 0.00 0.00 0.01 0.00 0.00 0.01 0.00 0.00 0.00 0.00 0.00 0.00 0.00 0.00 0.00 0.00 0.00 0.00 0.00 0.00 0.00 0.00 0.00 0.00 0.00 0.00 0.00 0.00 0.00 0.00 0.00 0.00 0.00 0.00 0.00 0.00 0.00 0.00 0.00 0.00 0.00 0.00 0.00 0.00 0.00
0.00 0.00 0.00 0.00 0.00 0.00 0.00 0.00 0.00 0.00 0.01 0.00 0.00 0.00 0.00 0.00 0.00 0.00 0.00 0.00 0.00 0.00 0.00 0.00 0.00 0.00 0.00 0.00 0.00 0.00 0.00 0.00 0.00 0.00 0.00 0.00 0.00 0.00 0.00 0.00 0.00 0.00 0.00 0.00 0.00 0.00 0.00 0.00 0.00
0.00 0.00 0.00 0.00 0.00 0.00 0.00 0.00 0.00 0.00 0.01 0.00 0.00 0.00 0.00 0.00 0.00 0.00 0.00 0.00 0.00 0.00 0.00 0.00 0.00 0.00 0.00 0.00 0.00 0.00 0.00 0.00 0.00 0.00 0.00 0.00 0.00 0.00 0.00 0.00 0.01 0.02 0.00 0.00 0.00 0.00 0.00 0.00 0.00
0.00 0.00 0.00 0.00 0.00 0.00 0.00 0.00 0.00 0.00 0.00 0.00 0.00 0.00 0.00 0.00 0.00 0.00 0.00 0.00 0.00 0.00 0.00 0.00 0.00 0.00 0.00 0.00 0.00 0.00 0.00 0.00 0.00 0.00 0.00 0.00 0.00 0.00 0.00 0.00 0.01 0.02 0.00 0.00 0.00 0.00 0.00 0.00 0.00
0.00 0.00 0.00 0.00 0.00 0.00 0.00 0.00 0.00 0.00 0.00 0.00 0.00 0.00 0.00 0.00 0.00 0.00 0.00 0.00 0.00 0.00 0.00 0.00 0.00 0.00 0.00 0.00 0.00 0.00 0.00 0.00 0.00 0.00 0.00 0.00 0.00 0.00 0.00 0.00 0.00 0.01 0.00 0.00 0.00 0.00 0.00 0.00 0.00
0.00 0.00 0.00 0.00 0.00 0.00 0.00 0.00 0.00 0.00 0.00 0.00 0.00 0.00 0.00 0.00 0.00 0.00 0.00 0.00 0.00 0.00 0.00 0.00 0.00 0.00 0.00 0.00 0.00 0.00 0.00 0.00 0.00 0.00 0.00 0.00 0.00 0.00 0.00 0.00 0.00 0.00 0.00 0.00 0.00 0.00 0.00 0.00 0.00
0.00 0.00 0.00 0.00 0.00 0.00 0.00 0.00 0.00 0.00 0.00 0.00 0.00 0.00 0.00 0.00 0.00 0.00 0.00 0.00 0.00 0.00 0.00 0.00 0.00 0.00 0.00 0.00 0.00 0.00 0.00 0.00 0.00 0.00 0.00 0.00 0.00 0.00 0.00 0.00 0.00 0.00 0.01 0.05 0.02 0.00 0.00 0.00 0.00
0.00 0.00 0.00 0.00 0.00 0.00 0.00 0.00 0.00 0.00 0.00 0.00 0.00 0.00 0.00 0.00 0.00 0.00 0.00 0.00 0.00 0.00 0.00 0.00 0.00 0.00 0.00 0.00 0.00 0.00 0.00 0.00 0.00 0.00 0.00 0.00 0.00 0.00 0.00 0.00 0.00 0.01 0.01 0.04 0.09 0.03 0.00 0.00 0.01
0.00 0.00 0.00 0.00 0.00 0.00 0.00 0.00 0.00 0.00 0.00 0.00 0.00 0.00 0.00 0.00 0.00 0.00 0.00 0.00 0.00 0.00 0.00 0.00 0.00 0.00 0.00 0.00 0.00 0.00 0.00 0.00 0.00 0.00 0.00 0.00 0.00 0.00 0.00 0.00 0.00 0.01 0.00 0.01 0.02 0.01 0.00 0.00 0.02
0.00 0.00 0.00 0.00 0.00 0.00 0.00 0.00 0.00 0.00 0.00 0.00 0.00 0.00 0.00 0.00 0.00 0.00 0.00 0.00 0.00 0.00 0.00 0.00 0.00 0.00 0.00 0.00 0.00 0.00 0.00 0.00 0.00 0.00 0.00 0.00 0.00 0.00 0.00 0.00 0.00 0.00 0.00 0.00 0.00 0.00 0.00 0.01 0.02
0.00 0.00 0.00 0.00 0.00 0.00 0.00 0.00 0.00 0.00 0.00 0.00 0.00 0.00 0.00 0.00 0.00 0.00 0.00 0.00 0.00 0.00 0.00 0.00 0.00 0.00 0.00 0.00 0.00 0.00 0.00 0.00 0.00 0.00 0.00 0.00 0.00 0.00 0.00 0.00 0.00 0.00 0.00 0.00 0.00 0.00 0.00 0.00 0.00
0.00 0.00 0.00 0.00 0.00 0.00 0.00 0.00 0.00 0.00 0.00 0.00 0.00 0.00 0.00 0.00 0.00 0.00 0.00 0.00 0.00 0.00 0.00 0.00 0.00 0.00 0.00 0.00 0.00 0.00 0.00 0.00 0.00 0.00 0.00 0.00 0.00 0.00 0.00 0.00 0.00 0.00 0.01 0.00 0.00 0.00 0.00 0.00 0.02
0.00 0.00 0.00 0.00 0.00 0.00 0.00 0.00 0.00 0.00 0.00 0.00 0.00 0.00 0.00 0.00 0.00 0.00 0.00 0.00 0.00 0.00 0.00 0.00 0.00 0.00 0.00 0.00 0.00 0.00 0.00 0.00 0.00 0.00 0.00 0.00 0.00 0.00 0.00 0.00 0.00 0.00 0.05 0.02 0.04 0.02 0.00 0.03 0.05
0.00 0.00 0.00 0.00 0.00 0.00 0.00 0.00 0.00 0.00 0.00 0.00 0.00 0.00 0.00 0.00 0.00 0.00 0.00 0.00 0.00 0.00 0.00 0.00 0.00 0.00 0.00 0.00 0.00 0.00 0.00 0.00 0.00 0.00 0.00 0.00 0.00 0.00 0.00 0.00 0.00 0.01 0.02 0.02 0.08 0.07 0.02 0.01 0.05
0.00 0.00 0.00 0.00 0.00 0.00 0.00 0.00 0.00 0.00 0.00 0.00 0.00 0.00 0.00 0.00 0.00 0.00 0.00 0.00 0.00 0.00 0.00 0.00 0.00 0.00 0.00 0.00 0.00 0.00 0.00 0.00 0.00 0.00 0.00 0.00 0.00 0.00 0.00 0.00 0.02 0.21 0.04 0.01 0.00 0.00 0.02 0.03 0.01
0.00 0.00 0.00 0.00 0.00 0.00 0.00 0.00 0.00 0.00 0.00 0.00 0.00 0.00 0.00 0.00 0.00 0.00 0.00 0.00 0.00 0.00 0.00 0.00 0.00 0.00 0.00 0.00 0.00 0.00 0.00 0.00 0.00 0.00 0.00 0.00 0.00 0.00 0.00 0.02 0.12 0.36 0.13 0.02 0.06 0.02 0.00 0.03 0.03
0.00 0.00 0.00 0.00 0.00 0.00 0.00 0.00 0.00 0.00 0.00 0.00 0.00 0.00 0.00 0.00 0.00 0.00 0.00 0.00 0.00 0.00 0.00 0.00 0.00 0.00 0.00 0.00 0.00 0.00 0.00 0.00 0.00 0.00 0.00 0.00 0.00 0.00 0.00 0.00 0.00 0.02 0.00 0.01 0.02 0.01 0.00 0.00 0.00
0.00 0.00 0.00 0.00 0.00 0.00 0.00 0.00 0.00 0.00 0.00 0.00 0.00 0.00 0.00 0.00 0.00 0.00 0.00 0.03 0.09 0.06 0.01 0.00 0.00 0.00 0.00 0.00 0.00 0.00 0.00 0.00 0.00 0.00 0.00 0.00 0.00 0.00 0.00 0.00 0.00 0.00 0.00 0.00 0.00 0.00 0.00 0.01 0.00
0.00 0.00 0.00 0.00 0.00 0.00 0.00 0.00 0.00 0.00 0.00 0.00 0.00 0.00 0.00 0.00 0.00 0.00 0.01 0.05 0.15 0.19 0.10 0.09 0.02 0.01 0.00 0.00 0.00 0.00 0.00 0.00 0.00 0.00 0.00 0.00 0.00 0.00 0.00 0.00 0.00 0.00 0.00 0.00 0.00 0.00 0.00 0.00 0.00
0.00 0.00 0.00 0.00 0.00 0.00 0.00 0.00 0.00 0.00 0.00 0.00 0.00 0.00 0.00 0.00 0.00 0.00 0.00 0.00 0.05 0.11 0.12 0.12 0.12 0.08 0.03 0.01 0.03 0.02 0.00 0.00 0.00 0.00 0.00 0.04 0.01 0.00 0.00 0.00 0.00 0.00 0.00 0.00 0.00 0.00 0.00 0.00 0.00
0.00 0.00 0.00 0.00 0.00 0.00 0.00 0.00 0.00 0.00 0.00 0.00 0.00 0.00 0.00 0.00 0.00 0.00 0.00 0.00 0.00 0.01 0.10 0.18 0.14 0.07 0.09 0.09 0.04 0.06 0.08 0.01 0.00 0.00 0.00 0.02 0.04 0.02 0.02 0.01 0.00 0.00 0.00 0.00 0.00 0.00 0.00 0.00 0.00
MSLP
1010.01 1010.00 1009.96 1010.19 1010.54 1009.48 1007.29 1005.45 1004.06 1003.74 1003.67 1003.58 1004.76 1005.36 1005.92 1006.37 1007.42 1008.50 1007.84 1008.74 1009.69 1010.14 1010.74 1011.40 1011.67 1011.96 1012.26 1012.43 1012.76 1013.12 1013.36 1013.59 1013.77 1014.03 1014.10 1013.98 1014.22 1014.36 1014.51 1015.03 1015.17 1015.35 1015.61 1015.85 1015.83 1016.18 1016.28 1016.47 1016.64
1009.85 1010.13 1010.13 1009.84 1009.78 1008.67 1006.65 1004.58 1003.96 1003.49 1003.58 1003.49 1004.05 1004.81 1005.44 1006.61 1006.94 1007.91 1008.73 1008.99 1009.14 1009.91 1010.85 1011.38 1011.84 1012.13 1012.32 1012.62 1012.94 1013.30 1013.56 1013.72 1013.95 1014.09 1014.19 1014.13 1014.27 1014.47 1014.72 1015.11 1015.31 1015.55 1015.72 1015.88 1015.94 1016.08 1016.26 1016.58 1016.86
1009.45 1009.58 1009.70 1009.70 1009.41 1008.75 1007.03 1004.74 1003.48 1003.12 1002.84 1003.07 1003.91 1004.50 1005.32 1006.57 1007.21 1007.62 1008.24 1009.14 1009.75 1010.20 1010.53 1011.13 1011.75 1012.17 1012.47 1012.71 1012.99 1013.27 1013.48 1013.86 1014.04 1014.16 1014.34 1014.48 1014.56 1014.63 1014.92 1015.16 1015.41 1015.69 1015.91 1015.98 1016.01 1016.29 1016.44 1016.69 1016.98
1009.23 1009.95 1010.25 1009.72 1009.52 1008.29 1007.33 1005.56 1003.78 1003.36 1003.43 1003.16 1003.61 1004.63 1005.38 1005.70 1006.32 1007.30 1008.21 1008.88 1009.76 1010.61 1010.87 1011.17 1011.55 1012.07 1012.46 1012.80 1013.03 1013.34 1013.67 1013.95 1014.22 1014.45 1014.40 1014.62 1014.81 1015.00 1015.04 1015.22 1015.54 1015.87 1016.14 1016.27 1016.24 1016.32 1016.63 1016.77 1017.10
1009.76 1010.17 1010.27 1010.34 1009.38 1008.16 1007.00 1005.18 1004.05 1003.34 1003.34 1003.62 1003.96 1004.97 1005.69 1006.12 1006.40 1007.35 1008.26 1008.83 1009.32 1010.39 1010.92 1011.32 1011.62 1012.08 1012.51 1012.79 1013.01 1013.30 1013.58 1013.99 1014.24 1014.40 1014.60 1014.78 1014.96 1015.06 1015.27 1015.46 1015.71 1015.96 1016.10 1016.25 1016.39 1016.47 1016.63 1016.91 1017.22
1009.93 1010.47 1010.66 1010.73 1009.52 1007.72 1006.14 1005.68 1004.40 1003.66 1003.84 1003.87 1004.72 1005.11 1006.20 1006.40 1006.82 1007.62 1008.04 1008.53 1009.18 1009.82 1010.60 1011.24 1011.68 1011.96 1012.34 1012.61 1012.96 1013.19 1013.46 1013.80 1014.04 1014.25 1014.54 1014.78 1015.06 1015.30 1015.36 1015.56 1015.86 1016.11 1016.15 1016.35 1016.49 1016.58 1016.71 1016.98 1017.21
1009.81 1010.87 1011.21 1010.86 1009.98 1007.66 1006.42 1005.98 1005.15 1005.05 1004.15 1004.25 1004.13 1005.59 1006.55 1007.02 1006.73 1007.23 1007.95 1008.47 1009.31 1009.88 1010.39 1010.94 1011.50 1011.88 1012.15 1012.45 1012.86 1013.15 1013.43 1013.75 1013.91 1014.14 1014.46 1014.66 1014.97 1015.26 1015.42 1015.54 1015.83 1016.02 1016.13 1016.49 1016.63 1016.66 1016.80 1017.04 1017.25
1009.86 1011.19 1012.09 1011.85 1010.52 1008.10 1005.86 1005.27 1004.54 1004.32 1004.76 1004.23 1003.91 1005.03 1005.78 1006.33 1006.85 1007.63 1008.17 1008.86 1009.33 1010.06 1010.54 1010.90 1011.25 1011.64 1012.12 1012.46 1012.73 1013.17 1013.43 1013.64 1013.80 1013.98 1014.34 1014.69 1014.92 1015.13 1015.46 1015.68 1015.74 1015.98 1016.15 1016.34 1016.57 1016.79 1016.91 1017.07 1017.27
1009.96 1011.57 1012.50 1011.77 1009.11 1005.95 1004.65 1004.48 1003.90 1004.58 1005.96 1005.64 1003.82 1003.51 1004.37 1005.48 1006.82 1007.83 1008.53 1009.55 1009.97 1010.35 1010.64 1011.06 1011.40 1011.67 1012.04 1012.36 1012.62 1013.02 1013.33 1013.59 1013.70 1013.92 1014.20 1014.56 1014.97 1015.16 1015.41 1015.56 1015.75 1015.89 1016.10 1016.32 1016.41 1016.77 1017.00 1017.17 1017.23
1008.49 1009.92 1009.91 1008.74 1006.93 1005.54 1004.22 1003.39 1003.67 1005.27 1005.72 1004.36 1003.52 1003.82 1004.43 1005.26 1006.41 1007.39 1008.33 1009.17 1009.91 1010.25 1010.77 1011.14 1011.42 1011.56 1011.93 1012.16 1012.48 1012.81 1013.01 1013.31 1013.59 1013.79 1014.11 1014.39 1014.79 1015.12 1015.36 1015.50 1015.73 1015.80 1016.00 1016.28 1016.47 1016.55 1016.91 1017.12 1017.30
1006.48 1006.90 1007.10 1006.94 1005.70 1004.93 1004.36 1003.88 1003.71 1004.38 1004.70 1003.61 1003.38 1003.80 1004.43 1005.21 1006.30 1007.11 1007.94 1008.46 1008.93 1009.62 1010.52 1010.90 1011.17 1011.32 1011.62 1011.81 1012.35 1012.58 1012.72 1012.96 1013.34 1013.70 1014.05 1014.23 1014.54 1014.85 1015.16 1015.45 1015.74 1015.92 1016.05 1016.31 1016.50 1016.52 1016.82 1017.07 1017.32
1005.74 1005.12 1005.31 1004.90 1004.81 1005.11 1004.48 1003.63 1003.12 1002.91 1001.80 1001.84 1002.37 1002.65 1003.83 1004.35 1005.43 1006.26 1007.16 1008.02 1008.82 1009.20 1009.85 1010.42 1010.88 1011.36 1011.33 1011.49 1011.82 1012.08 1012.41 1012.76 1013.16 1013.45 1013.69 1014.09 1014.57 1014.81 1014.98 1015.27 1015.50 1015.90 1016.11 1016.38 1016.56 1016.62 1016.78 1017.05 1017.25
1005.20 1004.53 1004.28 1003.97 1003.82 1004.04 1003.61 1003.48 1002.53 1001.50 1000.81 1001.22 1002.35 1003.21 1003.61 1003.79 1004.63 1005.78 1006.60 1007.40 1008.13 1008.74 1009.17 1009.87 1010.42 1010.99 1010.97 1011.13 1011.52 1012.01 1012.31 1012.50 1012.71 1012.98 1013.28 1013.59 1014.20 1014.73 1014.89 1015.00 1015.29 1015.59 1015.91 1016.16 1016.53 1016.61 1016.68 1016.91 1017.15
1004.80 1004.48 1004.00 1003.27 1003.24 1003.23 1003.26 1002.73 1002.44 1000.04 1000.48 1001.37 1001.76 1002.44 1003.09 1003.31 1003.89 1005.07 1006.21 1006.61 1007.15 1007.88 1008.20 1009.03 1009.90 1010.24 1010.54 1010.84 1011.18 1011.52 1011.76 1011.97 1012.34 1012.70 1013.00 1013.31 1013.51 1014.02 1014.54 1014.85 1015.09 1015.39 1015.50 1015.79 1016.18 1016.45 1016.57 1016.81 1016.94
1004.63 1004.72 1004.36 1003.49 1003.10 1002.71 1002.54 1001.86 1001.05 1000.11 1000.31 1000.99 1001.62 1002.20 1002.89 1003.17 1003.51 1003.65 1004.31 1005.23 1005.87 1006.79 1007.38 1007.89 1008.90 1009.66 1009.85 1010.32 1010.76 1010.98 1011.03 1011.39 1011.93 1012.17 1012.50 1012.96 1013.30 1013.55 1013.95 1014.59 1014.85 1014.80 1015.09 1015.41 1015.89 1016.23 1016.39 1016.71 1016.59
1005.30 1005.35 1005.15 1003.33 1003.24 1002.46 1002.68 1001.89 1000.29 999.85 999.90 1000.37 1000.82 1001.19 1001.63 1002.23 1001.75 1002.40 1003.07 1003.80 1004.61 1005.77 1006.43 1007.07 1007.86 1008.76 1009.32 1009.62 1010.16 1010.48 1010.52 1011.09 1011.62 1011.99 1012.08 1012.41 1012.91 1013.26 1013.78 1014.24 1014.42 1014.48 1014.97 1015.29 1015.83 1016.19 1016.41 1016.56 1016.68
1006.27 1006.23 1005.46 1004.07 1002.47 1002.23 1002.06 1001.68 1000.05 999.71 999.46 999.46 1000.21 1000.37 1000.92 1001.42 1001.77 1001.89 1002.30 1002.53 1003.33 1004.42 1005.59 1006.32 1007.03 1007.87 1008.37 1009.09 1009.55 1009.91 1010.29 1010.79 1011.15 1011.58 1011.72 1012.09 1012.42 1012.77 1013.26 1013.70 1013.94 1014.12 1014.68 1015.07 1015.48 1015.94 1016.13 1016.33 1016.44
1006.51 1006.29 1005.46 1004.54 1002.73 1002.37 1001.97 1001.49 1000.62 999.57 999.58 999.58 999.89 1000.45 1000.12 1000.37 1000.24 1000.27 1001.12 1001.95 1002.81 1003.69 1004.89 1005.68 1006.41 1007.14 1007.87 1008.41 1009.18 1009.66 1010.14 1010.41 1010.51 1010.90 1011.21 1011.69 1012.07 1012.30 1012.65 1013.02 1013.34 1013.82 1014.46 1014.82 1015.18 1015.47 1015.74 1015.92 1016.08
1005.89 1005.72 1005.26 1003.96 1002.86 1002.70 1001.85 1001.50 1000.71 999.85 999.57 999.73 1000.07 1000.86 1000.77 1000.66 999.56 999.84 1000.03 1001.00 1002.84 1003.74 1004.11 1004.98 1005.78 1006.43 1007.18 1007.88 1008.38 1008.98 1009.43 1010.08 1010.35 1010.53 1010.57 1011.08 1011.54 1011.81 1012.12 1012.69 1013.11 1013.56 1014.06 1014.42 1014.74 1015.07 1015.64 1015.90 1015.93
1005.08 1005.21 1004.52 1003.46 1002.42 1002.19 1002.19 1001.91 1000.82 1000.34 999.96 999.75 999.63 1000.36 999.85 999.93 999.94 1000.00 1000.12 1001.22 1001.93 1002.38 1003.24 1004.06 1004.77 1005.55 1006.24 1006.86 1007.35 1007.92 1008.66 1009.59 1009.83 1010.09 1010.25 1010.49 1010.92 1011.21 1011.44 1011.97 1012.51 1012.98 1013.55 1014.10 1014.56 1014.87 1015.16 1015.45 1015.69
1003.86 1004.26 1003.85 1003.25 1002.72 1002.41 1002.57 1002.58 1001.73 1000.56 1000.09 999.98 999.71 999.72 1000.02 1000.42 1000.33 999.72 1000.32 1000.21 1000.98 1002.06 1002.29 1002.86 1003.66 1004.57 1005.44 1006.08 1007.09 1007.80 1008.49 1009.07 1009.43 1009.65 1009.86 1010.03 1010.17 1010.65 1010.95 1011.41 1012.12 1012.63 1013.09 1013.67 1013.93 1014.27 1014.61 1014.92 1015.27
1002.80 1002.57 1002.74 1002.97 1003.45 1003.84 1003.47 1003.85 1002.87 1001.71 1001.06 1000.30 1000.09 1000.00 1000.55 1000.87 1000.16 999.08 999.47 999.95 1000.11 1000.57 1001.10 1001.91 1003.05 1003.48 1004.40 1005.44 1006.25 1006.88 1007.21 1007.78 1007.87 1008.40 1009.02 1009.56 1009.75 1010.21 1010.62 1010.93 1011.63 1012.14 1012.61 1013.02 1013.33 1013.71 1013.76 1014.22 1014.63
1002.17 1001.97 1002.63 1003.40 1004.18 1004.85 1004.14 1005.11 1003.44 1003.09 1002.82 1001.82 1000.99 1000.82 1001.04 1001.44 1001.05 1000.70 1001.21 1001.32 1000.82 1000.95 1001.42 1001.64 1001.90 1003.10 1003.39 1004.41 1005.25 1006.13 1006.82 1007.11 1007.58 1008.06 1008.65 1009.00 1009.41 1009.70 1009.92 1010.25 1010.86 1011.49 1012.02 1012.19 1012.59 1013.12 1013.54 1013.55 1013.88
1001.70 1002.36 1003.40 1004.52 1005.60 1006.36 1005.26 1005.89 1006.02 1005.80 1005.26 1003.44 1002.62 1002.15 1002.05 1002.55 1002.61 1002.82 1001.58 1001.58 999.66 999.48 1000.49 1001.32 1002.22 1002.24 1002.99 1003.81 1004.82 1005.38 1006.05 1006.64 1007.25 1007.74 1008.25 1008.64 1008.90 1009.20 1009.50 1009.97 1010.31 1010.72 1011.21 1011.50 1011.73 1012.08 1012.64 1013.02 1013.25
1002.95 1004.11 1005.23 1006.27 1007.00 1007.36 1005.97 1006.50 1006.65 1006.12 1005.31 1005.13 1004.61 1003.95 1004.17 1003.76 1003.45 1003.20 1001.93 1000.96 999.81 999.95 1000.81 1001.36 1001.71 1002.44 1002.64 1003.31 1004.11 1004.76 1005.37 1006.16 1006.64 1007.08 1007.58 1008.22 1008.50 1008.71 1009.07 1009.42 1010.02 1010.35 1010.67 1010.88 1010.96 1011.49 1012.06 1012.45 1012.87
1003.90 1004.69 1006.17 1006.79 1007.51 1007.07 1006.03 1006.48 1006.52 1006.12 1005.73 1005.64 1005.08 1005.26 1004.68 1004.70 1004.08 1002.78 1002.40 1000.13 1000.16 1001.11 1001.77 1002.25 1003.39 1004.15 1003.63 1002.43 1003.25 1004.16 1004.97 1005.56 1006.23 1006.75 1007.09 1007.40 1007.68 1007.85 1008.36 1008.83 1009.39 1009.76 1010.03 1010.31 1010.66 1011.41 1011.91 1012.03 1012.21
1004.73 1005.29 1005.29 1006.44 1007.03 1007.32 1006.95 1006.72 1006.24 1005.90 1005.52 1005.23 1005.23 1005.70 1005.22 1005.09 1004.77 1003.95 1003.25 1001.79 1001.26 1001.12 1002.51 1003.47 1003.48 1004.07 1004.18 1004.84 1005.18 1004.11 1004.64 1005.17 1005.76 1006.39 1006.59 1006.95 1007.19 1007.43 1007.81 1008.31 1008.83 1009.25 1009.56 1010.01 1010.40 1010.91 1011.25 1011.45 1011.57
1005.50 1005.23 1005.72 1006.91 1007.88 1008.19 1007.65 1007.26 1006.51 1005.98 1005.74 1005.59 1005.44 1005.79 1005.64 1005.01 1004.51 1003.74 1002.76 1002.52 1001.89 1001.37 1002.00 1002.81 1003.74 1004.08 1004.25 1004.03 1004.11 1004.60 1004.80 1004.73 1005.10 1005.72 1006.23 1006.44 1006.72 1007.03 1007.41 1007.83 1008.16 1008.72 1009.25 1009.63 1010.09 1010.31 1010.61 1010.94 1011.10
1005.44 1006.17 1006.86 1007.81 1008.52 1008.79 1008.40 1007.60 1006.02 1006.18 1006.41 1006.36 1006.27 1006.13 1005.55 1004.56 1004.78 1004.16 1003.23 1002.87 1002.36 1002.60 1000.31 1002.00 1003.32 1003.92 1003.96 1003.28 1003.58 1003.80 1004.33 1004.60 1004.31 1004.78 1005.38 1005.60 1005.96 1006.41 1006.71 1007.12 1007.67 1008.34 1008.83 1009.15 1009.63 1009.83 1010.13 1010.49 1010.69
1006.04 1006.68 1007.35 1008.36 1008.81 1008.83 1008.54 1007.21 1006.01 1006.60 1006.79 1007.09 1006.79 1006.88 1005.97 1004.91 1004.89 1004.34 1003.65 1003.19 1003.51 1003.99 1000.40 1001.43 1001.94 1002.47 1003.34 1002.20 1002.69 1003.10 1003.31 1004.15 1003.98 1003.53 1003.94 1004.60 1005.24 1005.74 1006.32 1006.91 1007.42 1007.86 1008.38 1008.83 1009.14 1009.30 1009.51 1010.02 1010.36
Thickness
5819 5815 5814 5803 5773 5771 5769 5802 5823 5818 5819 5831 5818 5804 5797 5797 5779 5754 5801 5795 5783 5778 5774 5766 5764 5762 5760 5759 5756 5755 5755 5757 5759 5760 5762 5768 5769 5770 5770 5765 5766 5766 5764 5762 5766 5763 5764 5763 5762
5820 5814 5803 5796 5770 5761 5778 5819 5811 5821 5829 5839 5833 5819 5806 5789 5805 5796 5790 5795 5792 5783 5773 5768 5765 5763 5762 5761 5760 5758 5757 5758 5759 5762 5764 5769 5766 5770 5769 5765 5766 5765 5765 5765 5766 5767 5767 5764 5762
5826 5820 5792 5785 5771 5760 5770 5816 5825 5834 5842 5839 5828 5832 5817 5798 5805 5804 5806 5798 5789 5783 5777 5771 5766 5763 5763 5763 5762 5762 5762 5760 5760 5762 5765 5765 5766 5768 5768 5767 5767 5765 5764 5765 5767 5766 5766 5765 5764
5821 5809 5799 5773 5765 5785 5787 5805 5832 5833 5839 5847 5840 5820 5827 5830 5820 5816 5810 5802 5790 5780 5775 5773 5771 5767 5764 5763 5762 5763 5762 5762 5761 5762 5765 5764 5765 5765 5767 5767 5766 5764 5763 5764 5766 5767 5765 5766 5764
5815 5801 5778 5769 5773 5787 5799 5821 5830 5834 5835 5834 5837 5817 5814 5823 5825 5817 5808 5802 5794 5784 5777 5773 5772 5768 5765 5763 5764 5763 5763 5762 5762 5763 5763 5763 5764 5765 5765 5765 5764 5763 5764 5765 5765 5766 5766 5765 5764
5796 5795 5767 5757 5769 5793 5812 5815 5824 5837 5838 5837 5824 5820 5811 5824 5816 5814 5813 5806 5799 5791 5783 5776 5773 5770 5768 5766 5764 5764 5764 5764 5765 5765 5764 5765 5764 5764 5765 5764 5762 5761 5762 5763 5764 5765 5766 5764 5765
5796 5779 5768 5762 5766 5788 5806 5816 5812 5818 5829 5828 5842 5810 5816 5819 5825 5821 5814 5810 5800 5792 5785 5779 5774 5771 5769 5768 5766 5765 5765 5764 5766 5767 5766 5767 5766 5765 5765 5765 5763 5763 5763 5760 5762 5763 5765 5765 5765
5801 5781 5761 5760 5755 5771 5817 5816 5829 5827 5818 5846 5852 5814 5812 5828 5830 5820 5813 5805 5801 5792 5786 5779 5776 5774 5771 5769 5768 5765 5764 5765 5767 5767 5766 5765 5765 5765 5764 5765 5765 5764 5764 5763 5763 5762 5763 5765 5764
5802 5758 5741 5757 5773 5807 5833 5820 5840 5836 5811 5819 5850 5846 5845 5844 5835 5819 5810 5801 5798 5792 5786 5778 5774 5773 5772 5770 5768 5765 5765 5765 5767 5767 5766 5765 5765 5764 5764 5766 5764 5765 5764 5764 5765 5763 5761 5763 5764
5800 5761 5766 5791 5808 5814 5835 5841 5834 5812 5801 5822 5841 5850 5851 5845 5835 5821 5809 5800 5797 5792 5785 5777 5772 5773 5773 5772 5771 5770 5769 5768 5769 5769 5767 5767 5766 5764 5764 5765 5764 5765 5764 5764 5765 5766 5763 5762 5764
5817 5797 5805 5804 5821 5827 5826 5830 5841 5815 5807 5831 5831 5843 5847 5842 5832 5824 5815 5809 5806 5800 5789 5782 5778 5777 5777 5776 5773 5773 5774 5774 5772 5769 5767 5767 5766 5766 5766 5766 5763 5763 5763 5762 5763 5766 5765 5764 5764
5808 5824 5823 5827 5827 5819 5816 5833 5831 5835 5845 5856 5856 5861 5852 5845 5839 5833 5824 5816 5807 5805 5797 5792 5786 5780 5781 5780 5779 5779 5777 5776 5774 5772 5771 5769 5765 5765 5766 5765 5765 5763 5762 5763 5761 5764 5765 5763 5763
5817 5825 5830 5833 5833 5828 5834 5824 5833 5843 5865 5867 5860 5853 5849 5847 5845 5841 5835 5827 5817 5810 5808 5801 5796 5788 5788 5786 5783 5780 5778 5776 5775 5773 5773 5771 5769 5767 5765 5766 5766 5765 5764 5764 5762 5763 5764 5763 5762
5827 5826 5828 5835 5831 5831 5821 5827 5834 5862 5868 5858 5856 5851 5851 5849 5848 5842 5835 5834 5829 5820 5819 5812 5803 5799 5796 5792 5788 5785 5781 5778 5775 5773 5772 5772 5772 5769 5766 5766 5767 5766 5767 5766 5763 5762 5764 5764 5763
5829 5811 5818 5825 5828 5826 5834 5821 5832 5862 5866 5852 5849 5849 5847 5841 5848 5849 5848 5844 5843 5831 5828 5825 5813 5807 5803 5798 5793 5790 5786 5782 5777 5773 5773 5772 5771 5770 5769 5766 5767 5768 5766 5766 5764 5762 5762 5763 5764
5809 5802 5778 5819 5821 5827 5819 5792 5839 5858 5855 5849 5848 5851 5853 5851 5862 5860 5858 5853 5852 5843 5836 5833 5826 5816 5811 5806 5800 5795 5791 5786 5780 5775 5775 5772 5771 5770 5767 5764 5764 5766 5764 5763 5762 5761 5760 5761 5762
5783 5765 5780 5795 5829 5822 5817 5803 5841 5852 5854 5849 5845 5853 5854 5851 5854 5862 5861 5864 5858 5852 5844 5837 5832 5824 5820 5813 5808 5802 5795 5790 5785 5780 5779 5776 5774 5772 5768 5765 5765 5766 5763 5763 5762 5760 5760 5759 5760
5766 5771 5778 5783 5816 5816 5807 5806 5829 5847 5848 5848 5846 5844 5854 5854 5859 5869 5866 5864 5861 5855 5848 5843 5837 5831 5826 5821 5813 5807 5799 5794 5792 5788 5785 5781 5778 5775 5771 5769 5769 5766 5762 5761 5761 5760 5760 5759 5760
5787 5779 5775 5796 5813 5802 5804 5802 5819 5836 5842 5840 5835 5831 5836 5843 5864 5867 5873 5866 5852 5851 5850 5845 5839 5835 5830 5823 5816 5811 5804 5797 5794 5793 5791 5785 5781 5778 5775 5772 5770 5766 5763 5762 5760 5757 5754 5753 5757
5787 5771 5773 5795 5811 5807 5795 5798 5818 5827 5831 5840 5840 5829 5839 5844 5848 5853 5859 5855 5853 5853 5854 5849 5845 5840 5834 5830 5826 5819 5812 5803 5799 5794 5792 5788 5783 5779 5779 5776 5772 5769 5763 5759 5757 5754 5752 5752 5754
5785 5767 5771 5779 5796 5804 5792 5776 5790 5816 5825 5831 5840 5844 5840 5831 5830 5844 5845 5854 5856 5849 5852 5856 5850 5844 5838 5834 5825 5817 5810 5805 5800 5796 5793 5791 5787 5783 5780 5776 5771 5766 5762 5758 5757 5757 5755 5750 5752
5780 5805 5798 5789 5769 5745 5784 5726 5772 5791 5802 5817 5825 5831 5823 5821 5830 5845 5850 5847 5852 5855 5859 5856 5852 5849 5843 5836 5828 5821 5815 5808 5811 5805 5800 5794 5790 5785 5779 5775 5769 5765 5762 5758 5757 5757 5759 5758 5753
5787 5810 5797 5787 5765 5757 5768 5734 5755 5776 5776 5793 5811 5818 5815 5810 5815 5820 5821 5826 5839 5844 5847 5850 5855 5846 5846 5840 5833 5826 5817 5815 5812 5808 5800 5797 5793 5789 5785 5780 5775 5768 5763 5762 5759 5755 5753 5756 5755
5812 5794 5773 5760 5739 5715 5748 5732 5725 5732 5744 5774 5786 5795 5801 5798 5797 5798 5810 5814 5840 5853 5849 5843 5842 5848 5844 5841 5833 5829 5822 5816 5809 5806 5801 5797 5795 5792 5789 5783 5777 5772 5766 5762 5760 5758 5756 5755 5755
5777 5747 5710 5708 5702 5705 5746 5725 5715 5744 5758 5757 5761 5770 5770 5773 5775 5784 5796 5810 5827 5836 5834 5835 5836 5838 5842 5840 5836 5831 5827 5819 5812 5809 5804 5797 5794 5792 5788 5784 5777 5770 5767 5763 5759 5755 5755 5755 5753
5763 5749 5708 5693 5687 5714 5746 5724 5728 5752 5758 5757 5760 5753 5760 5755 5758 5774 5786 5812 5817 5812 5815 5817 5809 5809 5826 5841 5839 5833 5826 5821 5815 5810 5806 5802 5799 5798 5794 5789 5783 5778 5772 5767 5762 5755 5753 5754 5754
5752 5735 5755 5723 5722 5700 5716 5728 5742 5751 5754 5759 5757 5748 5748 5745 5747 5753 5768 5788 5801 5807 5798 5796 5798 5799 5807 5805 5810 5827 5823 5819 5814 5809 5808 5804 5802 5800 5796 5792 5785 5779 5774 5770 5766 5760 5759 5758 5758
5751 5756 5722 5709 5694 5687 5697 5709 5708 5733 5738 5743 5746 5740 5740 5744 5744 5755 5767 5776 5788 5796 5796 5795 5792 5788 5795 5804 5804 5806 5810 5815 5813 5808 5805 5803 5801 5798 5795 5791 5788 5781 5775 5771 5768 5765 5763 5759 5759
5737 5715 5719 5709 5693 5679 5663 5686 5724 5727 5729 5726 5729 5731 5735 5745 5742 5747 5763 5769 5780 5778 5801 5794 5786 5782 5784 5799 5801 5802 5799 5802 5810 5809 5804 5803 5802 5798 5795 5792 5787 5780 5775 5773 5768 5766 5764 5760 5757
5738 5729 5709 5682 5684 5684 5675 5681 5735 5724 5723 5717 5719 5719 5728 5740 5741 5746 5756 5766 5764 5756 5793 5783 5783 5785 5781 5798 5798 5797 5796 5792 5800 5810 5811 5804 5799 5796 5790 5786 5783 5780 5775 5771 5768 5766 5765 5759 5755